Location: Waco, TX
(31.5480°N, 97.1670°W)
Time: 00:35:23
(UTC-06:00)

ISS - Pass Details

Date: 18 January 2018
Orbit: 402 x 407 km, 51.6° (Epoch: 21 January)

Event Time Altitude Azimuth Distance (km) Brightness Sun altitude
Rises 21:42:25 0° 240° (WSW) 2,300 - -49.0°
Reaches altitude 10° 21:44:35 10° 249° (WSW) 1,445 - -49.4°
Maximum altitude 21:47:37 37° 319° (NW) 640 - -50.1°
Drops below altitude 10° 21:50:40 10° 29° (NNE) 1,453 - -50.7°
Sets 21:52:51 0° 38° (NE) 2,315 - -51.2°
